[[{"header":{"parameterUnit":"m.s-1","parameterCategory":1,"la1":30.2991,"la2":30.254,"lo1":-89.0895,"lo2":-89.0444,"dy":0.0017,"dx":0.0017,"nx":28,"ny":28,"refTime":"2024-10-10T03:00:00:Z","depth":0,"parameterNumber":2,"parameterNumberName":"U-component_of_WINDS"},"data":[0,0,0,0,0,0,0,0,0,0,0,0,0,0,0,0,0,0,0,0,0,0,0,0,0,0,0,0,0,0,0,0,0,0,0,0,0,0,0,0,0,0,0,0,0,0,0,0,0,0,0,0,0,0,0,0,0,0,-3.3965,-3.3966,0,-3.404,-3.4041,-3.4042,-3.3914,-3.391,-3.3906,-3.3901,-3.3981,-3.3987,-3.3993,0,0,0,0,0,0,0,0,0,0,0,0,0,-3.3713,-3.3718,-3.3965,-3.3966,-3.3967,-3.404,-3.4041,-3.4042,-3.3915,-3.391,-3.3904,-3.3899,-3.3979,-3.3987,-3.3994,0,0,0,0,0,0,0,0,0,0,0,0,0,-3.3809,-3.372,-3.3965,-3.3912,-3.3908,-3.404,-3.4041,-3.4042,-3.3916,-3.391,-3.3903,-3.3897,-3.3977,-3.3986,-3.3995,-3.4182,0,0,-3.4023,-3.4027,0,0,0,0,0,0,0,0,-3.3804,-3.3818,-3.3919,-3.3916,-3.3912,-3.3961,-3.3981,-3.4089,-3.3918,-3.3913,-3.3901,-3.3894,-3.398,-3.3989,-3.4017,-3.4186,-3.4189,-3.4024,-3.403,-3.4034,-3.4036,0,0,0,0,0,0,0,-3.3797,-3.3814,-3.3994,-3.392,-3.3916,-3.3885,-3.3892,-3.4001,-3.3982,-3.3913,-3.3904,-3.3914,-3.3977,-3.4008,-3.4018,-3.419,-3.4024,-3.4032,-3.4038,-3.4041,-3.4517,-3.4524,0,0,0,0,0,0,-3.3797,-3.381,-3.3992,-3.3997,-3.384,-3.3895,-3.3902,-3.3952,-3.3981,-3.3979,-3.392,-3.3908,-3.3996,-3.4007,-3.402,-3.4242,-3.4034,-3.4042,-3.4048,-3.451,-3.4519,-3.4526,0,0,0,0,0,0,-3.3792,-3.3814,-3.3989,-3.3901,-3.3921,-3.3906,-3.3963,-3.3957,-3.3988,-3.3986,-3.3982,-3.3956,-3.3991,-3.4007,-3.4143,-3.4243,-3.4046,-3.4055,-3.4502,-3.4513,-3.4522,-3.4687,0,0,0,0,0,0,-3.3785,-3.3813,-3.3884,-3.3903,-3.3926,-3.411,-3.3969,-3.3963,-3.4004,-3.399,-3.4018,-3.4017,-3.3987,-3.413,-3.4152,-3.4252,-3.4062,-3.4493,-3.4506,-3.4519,-3.4672,-3.4702,-3.4727,0,0,0,0,0,-3.3776,-3.3928,-3.3888,-3.3911,-3.4014,-3.4116,-3.4129,-3.4091,-3.4013,-3.4084,-3.4082,-3.4016,-3.4228,-3.4145,-3.4169,-3.4273,-3.4486,-3.4503,-3.4518,-3.466,-3.4696,-3.4726,0,0,0,0,0,0,-3.3921,-3.3929,-3.3885,-3.4047,-3.4082,-3.4094,-3.4183,-3.413,-3.4189,-3.4173,-3.4124,-3.4132,-3.4278,-3.4288,-3.4195,-3.4456,-3.4344,-3.4366,-3.4444,-3.4478,-3.4504,-3.45,-3.407,0,0,0,0,0,-3.3972,-3.4054,-3.4056,-3.4199,-3.4218,-3.4198,-3.4241,-3.4209,-3.4243,-3.4258,-3.4266,-3.4303,-3.4377,-3.4428,-3.4496,-3.4672,-3.4678,-3.4756,-3.4783,-3.4806,-3.4826,-3.492,-3.4956,-3.4579,-3.4578,-3.4578,0,0,-3.4078,-3.4092,-3.4147,-3.4228,-3.4251,-3.4338,-3.4212,-3.4308,-3.4373,-3.4273,-3.4401,-3.4409,-3.4446,-3.4603,-3.4673,-3.4617,-3.4931,-3.4826,-3.4844,-3.4852,-3.494,-3.4976,-3.5008,-3.4589,-3.4587,-3.4586,0,0,-3.4315,-3.4334,-3.4454,-3.448,-3.4516,-3.4502,-3.4531,-3.4551,-3.4552,-3.468,-3.4607,-3.4683,-3.4812,-3.4842,-3.4875,-3.5123,-3.5064,-3.5146,-3.5289,-3.5382,-3.5412,-3.5438,-3.5528,-3.556,-3.5165,-3.5166,-3.5166,0,-3.4442,-3.4569,-3.4524,-3.4626,-3.4664,-3.4576,-3.4699,-3.4726,-3.4784,-3.4813,-3.4748,-3.4909,-3.4928,-3.5091,-3.5152,-3.518,-3.5213,-3.5144,-3.5411,-3.5437,-3.5461,-3.5546,-3.5579,-3.5176,-3.5175,-3.5174,-3.5173,0,-3.4724,-3.4814,-3.4907,-3.4964,-3.5012,-3.5125,-3.5097,-3.5151,-3.5115,-3.5107,-3.5239,-3.5258,-3.5329,-3.5365,-3.5331,-3.5524,-3.5488,-3.5419,-3.5306,-3.5507,-3.5586,-3.5618,-3.519,-3.5186,-3.5183,-3.5181,0,0,-3.5057,-3.5086,-3.5121,-3.5146,-3.5179,-3.5248,-3.5356,-3.5424,-3.5473,-3.5515,-3.5605,-3.5717,-3.5652,-3.5689,-3.5657,-3.5738,-3.5935,-3.5658,-3.5658,-3.571,-3.615,-3.6204,-3.6242,-3.5895,-3.5901,-3.5906,-3.6147,0,-3.5293,-3.5479,-3.5441,-3.5624,-3.5706,-3.5623,-3.5717,-3.5749,-3.5744,-3.5814,-3.5809,-3.5889,-3.5797,-3.5819,-3.5896,-3.5895,-3.6023,-3.5876,-3.598,-3.5985,-3.5975,-3.6283,-3.634,-3.6567,-3.6178,-3.6183,-3.6187,0,-3.5595,-3.5648,-3.5839,-3.5858,-3.5891,-3.5977,-3.6037,-3.6104,-3.6138,-3.6129,-3.617,-3.6122,-3.623,-3.6114,-3.6263,-3.6165,-3.6204,-3.621,-3.6218,-3.6228,-3.6099,-3.6303,-3.6638,-3.6673,-3.6235,-3.6231,-3.6228,0,-3.582,-3.5939,-3.6068,-3.6092,-3.6118,-3.618,-3.6194,-3.622,-3.6264,-3.6317,-3.6345,-3.641,-3.6446,-3.6498,-3.6469,-3.6387,-3.6624,-3.6505,-3.662,-3.6622,-3.6675,-3.6673,-3.7024,-3.6699,-3.6698,-3.6698,-3.6697,0,-3.6089,-3.621,-3.6169,-3.6249,-3.6382,-3.6337,-3.6469,-3.6473,-3.6498,-3.6578,-3.651,-3.6586,-3.6543,-3.6616,-3.6594,-3.6722,-3.6738,-3.6735,-3.6728,-3.6742,-3.6743,-3.6769,-3.6753,-3.6707,-3.6705,-3.6703,-3.6701,0,-3.6364,-3.6341,-3.6477,-3.649,-3.6496,-3.6594,-3.6605,-3.668,-3.667,-3.6772,-3.6793,-3.6778,-3.6861,-3.6837,-3.6927,-3.6912,-3.7074,-3.7046,-3.7063,-3.7056,-3.7173,-3.7163,-3.7555,-3.7604,-3.7246,-3.725,-3.7253,0,-3.6538,-3.6628,-3.6651,-3.6699,-3.6718,-3.6796,-3.684,-3.6799,-3.6848,-3.6893,-3.6963,-3.7039,-3.7099,-3.7235,-3.7233,-3.7301,-3.7276,-3.7408,-3.7286,-3.7297,-3.7279,-3.7275,-3.7284,-3.7433,-3.7437,-3.7441,-3.7443,0,-3.685,-3.6834,-3.69,-3.6963,-3.7017,-3.7064,-3.7105,-3.7149,-3.711,-3.7169,-3.7252,-3.7298,-3.7389,-3.7467,-3.7529,-3.7544,-3.7489,-3.7482,-3.7512,-3.7528,-3.7535,-3.7534,-3.7131,-3.7473,-3.747,-3.7468,-3.7467,-3.7465,-3.7081,-3.7157,-3.7185,-3.7261,-3.7287,-3.7327,-3.7398,-3.7396,-3.7465,-3.7536,-3.7507,-3.7604,-3.7635,-3.7712,-3.7735,-3.7811,-3.776,-3.7804,-3.7816,-3.7828,-3.7843,-3.7522,-3.7822,-3.7821,-3.782,-3.7819,-3.7819,0,-3.739,-3.7404,-3.7473,-3.7533,-3.7593,-3.7533,-3.7575,-3.763,-3.7715,-3.7748,-3.7808,-3.7904,-3.7979,-3.7982,-3.8052,-3.8112,-3.8088,-3.8132,-3.8128,-3.8132,-3.7883,-3.7851,-3.8149,-3.8149,-3.8149,-3.8149,-3.8149,-3.8149,-3.7558,-3.7685,-3.7673,-3.7812,-3.7825,-3.7918,-3.7948,-3.7984,-3.8011,-3.8121,-3.8182,-3.8183,-3.8205,-3.8276,-3.8342,-3.8341,-3.837,-3.8424,-3.8414,-3.8182,-3.815,-3.8118,-3.8087,-3.8431,-3.8431,-3.8656,-3.8659,-3.866]},{"header":{"parameterUnit":"m.s-1","parameterCategory":1,"la1":30.2991,"la2":30.254,"lo1":-89.0895,"lo2":-89.0444,"dy":0.0017,"dx":0.0017,"nx":28,"ny":28,"refTime":"2024-10-10T03:00:00:Z","depth":0,"parameterNumber":3,"parameterNumberName":"V-component_of_WINDS"},"data":[0,0,0,0,0,0,0,0,0,0,0,0,0,0,0,0,0,0,0,0,0,0,0,0,0,0,0,0,0,0,0,0,0,0,0,0,0,0,0,0,0,0,0,0,0,0,0,0,0,0,0,0,0,0,0,0,0,0,-3.1935,-3.1935,0,-3.1895,-3.1895,-3.1895,-3.1833,-3.1832,-3.1831,-3.183,-3.1788,-3.1788,-3.1788,0,0,0,0,0,0,0,0,0,0,0,0,0,-3.1956,-3.1956,-3.1935,-3.1935,-3.1934,-3.1896,-3.1895,-3.1894,-3.1833,-3.1832,-3.183,-3.1829,-3.1788,-3.1788,-3.1788,0,0,0,0,0,0,0,0,0,0,0,0,0,-3.1935,-3.1956,-3.1936,-3.1899,-3.1896,-3.1896,-3.1895,-3.1894,-3.1833,-3.1832,-3.183,-3.1829,-3.1788,-3.1788,-3.1788,-3.1821,0,0,-3.1788,-3.1788,0,0,0,0,0,0,0,0,-3.1936,-3.1934,-3.1905,-3.1902,-3.1898,-3.1867,-3.1887,-3.187,-3.1834,-3.1857,-3.183,-3.1828,-3.1816,-3.1814,-3.181,-3.1819,-3.1817,-3.1788,-3.1788,-3.1788,-3.1788,0,0,0,0,0,0,0,-3.1938,-3.1935,-3.192,-3.1905,-3.19,-3.1884,-3.1879,-3.1883,-3.1846,-3.1855,-3.185,-3.1846,-3.1814,-3.181,-3.1808,-3.1816,-3.1788,-3.1788,-3.1788,-3.1788,-3.1846,-3.1847,0,0,0,0,0,0,-3.1945,-3.1937,-3.1921,-3.1918,-3.1913,-3.1885,-3.188,-3.1879,-3.1846,-3.1839,-3.1848,-3.1844,-3.1811,-3.1808,-3.1807,-3.1839,-3.1788,-3.1788,-3.1788,-3.1844,-3.1846,-3.1848,0,0,0,0,0,0,-3.1945,-3.1944,-3.1922,-3.1926,-3.1922,-3.1886,-3.1886,-3.1879,-3.1875,-3.1841,-3.1834,-3.1851,-3.1809,-3.1807,-3.1817,-3.1837,-3.1788,-3.1787,-3.1842,-3.1845,-3.1847,-3.1907,0,0,0,0,0,0,-3.1946,-3.1944,-3.1957,-3.1927,-3.1923,-3.1934,-3.1887,-3.1879,-3.1875,-3.1869,-3.1842,-3.1836,-3.1808,-3.1817,-3.1817,-3.1836,-3.1787,-3.184,-3.1843,-3.1846,-3.1903,-3.1912,-3.1919,0,0,0,0,0,-3.1947,-3.1977,-3.1958,-3.1957,-3.1938,-3.1936,-3.1933,-3.1901,-3.1877,-3.1889,-3.1866,-3.1837,-3.1835,-3.1819,-3.1818,-3.1837,-3.1839,-3.1842,-3.1846,-3.19,-3.191,-3.1919,0,0,0,0,0,0,-3.2011,-3.1972,-3.1951,-3.1972,-3.1958,-3.1925,-3.1939,-3.1913,-3.1905,-3.19,-3.186,-3.1854,-3.1868,-3.1854,-3.1836,-3.1865,-3.1832,-3.1836,-3.1874,-3.1883,-3.1891,-3.1893,-3.1787,0,0,0,0,0,-3.2027,-3.2029,-3.1995,-3.2017,-3.201,-3.1976,-3.1974,-3.195,-3.1934,-3.1927,-3.1905,-3.189,-3.1885,-3.1884,-3.1878,-3.1901,-3.1893,-3.1914,-3.1922,-3.1928,-3.1931,-3.1939,-3.1947,-3.186,-3.186,-3.186,0,0,-3.2061,-3.204,-3.2044,-3.2029,-3.2015,-3.2016,-3.1972,-3.1976,-3.1976,-3.1928,-3.1935,-3.1919,-3.1898,-3.1914,-3.192,-3.1903,-3.1954,-3.1933,-3.1938,-3.1938,-3.1944,-3.1952,-3.1959,-3.1862,-3.1862,-3.1861,0,0,-3.2123,-3.2109,-3.2123,-3.211,-3.2088,-3.2065,-3.2069,-3.204,-3.2027,-3.2033,-3.1996,-3.1995,-3.199,-3.1976,-3.1968,-3.2022,-3.1993,-3.2022,-3.2061,-3.2069,-3.2076,-3.2082,-3.2098,-3.2105,-3.2025,-3.2025,-3.2025,0,-3.2168,-3.2169,-3.2134,-3.214,-3.2133,-3.2089,-3.2102,-3.2091,-3.2069,-3.2065,-3.2046,-3.2035,-3.2019,-3.2029,-3.2042,-3.2038,-3.2039,-3.2024,-3.2078,-3.2083,-3.2088,-3.2103,-3.211,-3.2029,-3.2028,-3.2028,-3.2028,0,-3.2224,-3.2225,-3.224,-3.2219,-3.2214,-3.2224,-3.2188,-3.2187,-3.2163,-3.2142,-3.2147,-3.2126,-3.2113,-3.2114,-3.2092,-3.2121,-3.211,-3.2085,-3.2051,-3.21,-3.2114,-3.212,-3.2033,-3.2032,-3.2031,-3.203,0,0,-3.2326,-3.2283,-3.2289,-3.2277,-3.225,-3.225,-3.2256,-3.2244,-3.2242,-3.2229,-3.2232,-3.2226,-3.2202,-3.2193,-3.2168,-3.2176,-3.2216,-3.2149,-3.2148,-3.216,-3.2243,-3.2261,-3.2268,-3.2197,-3.2198,-3.2199,-3.2244,0,-3.238,-3.239,-3.2357,-3.2374,-3.2373,-3.233,-3.2335,-3.2318,-3.2297,-3.2293,-3.227,-3.2265,-3.2235,-3.2229,-3.2235,-3.221,-3.2232,-3.2207,-3.2198,-3.2198,-3.2202,-3.2276,-3.2295,-3.2338,-3.2249,-3.225,-3.2251,0,-3.2446,-3.2434,-3.2451,-3.2419,-3.2418,-3.2423,-3.2407,-3.2404,-3.2383,-3.2367,-3.2356,-3.2327,-3.2329,-3.2297,-3.2299,-3.2282,-3.2276,-3.2264,-3.2264,-3.2261,-3.2226,-3.2272,-3.2352,-3.2357,-3.2259,-3.2259,-3.2258,0,-3.2515,-3.2504,-3.2511,-3.2503,-3.2467,-3.2471,-3.2457,-3.2434,-3.2427,-3.2413,-3.2408,-3.2395,-3.2388,-3.2377,-3.2344,-3.2325,-3.2348,-3.2315,-3.2334,-3.2334,-3.234,-3.234,-3.2417,-3.234,-3.2339,-3.2339,-3.2339,0,-3.2579,-3.259,-3.2541,-3.2546,-3.2556,-3.2518,-3.2529,-3.251,-3.2489,-3.2488,-3.245,-3.245,-3.2407,-3.2401,-3.2375,-3.2379,-3.2376,-3.2362,-3.2355,-3.2364,-3.2366,-3.2359,-3.2354,-3.2341,-3.2341,-3.234,-3.234,0,-3.2658,-3.2626,-3.2631,-3.2596,-3.2587,-3.2596,-3.2565,-3.2567,-3.2543,-3.2542,-3.2539,-3.2502,-3.2493,-3.2459,-3.2442,-3.2424,-3.2435,-3.2422,-3.2442,-3.2437,-3.2457,-3.2455,-3.2532,-3.2539,-3.2459,-3.246,-3.246,0,-3.27,-3.2707,-3.2672,-3.2668,-3.2655,-3.265,-3.2642,-3.2604,-3.2598,-3.2573,-3.2577,-3.2565,-3.2553,-3.254,-3.251,-3.2496,-3.2482,-3.2509,-3.2479,-3.2488,-3.2479,-3.2478,-3.2477,-3.2516,-3.2517,-3.2518,-3.2518,0,-3.2776,-3.2759,-3.275,-3.2735,-3.2727,-3.2714,-3.2698,-3.2697,-3.2654,-3.2649,-3.2638,-3.2629,-3.2611,-3.2598,-3.2579,-3.2562,-3.2532,-3.2528,-3.2531,-3.254,-3.255,-3.2542,-3.2458,-3.2526,-3.2525,-3.2525,-3.2524,-3.2524,-3.2836,-3.2839,-3.2814,-3.2805,-3.2789,-3.2774,-3.2773,-3.2748,-3.2739,-3.2721,-3.2699,-3.2691,-3.2666,-3.2637,-3.2622,-3.2614,-3.2598,-3.2604,-3.2605,-3.2606,-3.2609,-3.2553,-3.2611,-3.2611,-3.261,-3.261,-3.261,0,-3.2908,-3.289,-3.2882,-3.286,-3.2851,-3.2824,-3.2805,-3.2799,-3.2792,-3.2772,-3.2761,-3.2747,-3.2734,-3.2703,-3.2686,-3.2686,-3.2672,-3.2683,-3.2681,-3.2677,-3.2626,-3.2624,-3.2694,-3.2694,-3.2694,-3.2694,-3.2694,-3.2694,-3.2945,-3.2948,-3.2928,-3.2922,-3.2903,-3.2894,-3.2885,-3.287,-3.2853,-3.284,-3.2829,-3.2809,-3.2783,-3.2764,-3.275,-3.2741,-3.2735,-3.275,-3.2737,-3.2689,-3.2681,-3.2674,-3.2671,-3.275,-3.275,-3.2788,-3.2789,-3.2789]}]]